Weather History for KDMO - January, 2013

Change the Weather History Date:

Saturday, January 5, 2013

  Actual Average Record
Temperature  
Mean Temperature 36 °F 31 °F  
Max Temperature 41 °F 40 °F 69 °F (1956)
Min Temperature 31 °F 23 °F -12 °F (1940)
Degree Days  
Heating Degree Days 29 34  
Month to date heating degree days 192 168  
Since 1 July heating degree days 1856 1949  
Cooling Degree Days 0 0  
Month to date cooling degree days 0 0  
Year to date cooling degree days 0 0  
Moisture  
Dew Point 29 °F    
Average Humidity 72    
Maximum Humidity 79    
Minimum Humidity 64    
Precipitation  
Precipitation 0.01 in 0.06 in 1.69 in (1955)
Month to date precipitation 0.01 0.26  
Year to date precipitation 0.01 0.26  
Sea Level Pressure  
Sea Level Pressure 30.20 in    
Wind  
Wind Speed 12 mph (SW)    
Max Wind Speed 20 mph    
Max Gust Speed 26 mph    
Visibility 10 miles    
Events Rain    
T = Trace of Precipitation, MM = Missing Value Source: NWS Daily Summary

Daily Weather History Graph

Daily Weather History Graph

Search for Another Location

Airport or City:

Trip Planner

Search our weather history database for the weather conditions in past years. The results will help you decide how hot, cold, wet, or windy it might be!

Date:

Astronomy

Jan. 05, 2013 Rise Set
Actual Time 7:31 AM CST 5:05 PM CST
Civil Twilight 7:01 AM CST 5:35 PM CST
Nautical Twilight 6:28 AM CST 6:08 PM CST
Astronomical Twilight 5:56 AM CST 6:40 PM CST
Moon 12:40 AM CST (1/5) 11:53 AM CST (1/5)
Length of Visible Light 10h 33m
Length of Day
9h 34m
Last Quarter, 44% of the Moon is Illuminated
Jan 5
Last Quarter
Jan 11
New
Jan 18
First Quarter
Jan 26
Full
Feb 3
Last Quarter

Hourly Weather History & Observations

Time (CST) Temp. Windchill Dew Point Humidity Pressure Visibility Wind Dir Wind Speed Gust Speed Precip Events Conditions
12:53 AM 34.0 °F 25.5 °F 23.0 °F 64% 30.30 in 10.0 mi SW 11.5 mph - N/A   Clear
1:53 AM 32.0 °F 24.8 °F 24.1 °F 73% 30.28 in 10.0 mi SSW 8.1 mph - N/A   Clear
2:53 AM 33.1 °F 26.1 °F 23.0 °F 66% 30.28 in 10.0 mi SSW 8.1 mph - N/A   Clear
3:53 AM 34.0 °F 26.6 °F 24.1 °F 67% 30.27 in 10.0 mi SW 9.2 mph - N/A   Clear
4:53 AM 34.0 °F 25.0 °F 24.1 °F 67% 30.27 in 10.0 mi SW 12.7 mph - N/A   Scattered Clouds
5:53 AM 36.0 °F 27.1 °F 25.0 °F 64% 30.27 in 10.0 mi SW 13.8 mph - N/A   Overcast
7:53 AM 36.0 °F 28.0 °F 27.0 °F 70% 30.27 in 10.0 mi SW 11.5 mph - N/A   Overcast
8:53 AM 37.0 °F 31.6 °F 30.0 °F 76% 30.27 in 10.0 mi South 6.9 mph - N/A   Overcast
9:53 AM 39.0 °F 31.8 °F 30.0 °F 70% 30.26 in 10.0 mi SSW 11.5 mph - N/A   Overcast
10:20 AM 39.2 °F 32.0 °F 30.2 °F 70% 30.22 in 10.0 mi SSW 11.5 mph - N/A   Overcast
10:53 AM 39.9 °F 32.1 °F 30.0 °F 68% 30.24 in 10.0 mi SSW 13.8 mph - N/A   Overcast
11:11 AM 39.2 °F 31.2 °F 30.2 °F 70% 30.21 in 10.0 mi SSW 13.8 mph - N/A   Overcast
11:53 AM 39.0 °F 29.6 °F 30.9 °F 73% 30.21 in 10.0 mi SW 18.4 mph 24.2 mph 0.00 in Rain Light Rain
12:03 PM 39.2 °F 30.8 °F 30.2 °F 70% 30.19 in 10.0 mi SW 15.0 mph - 0.00 in Rain Light Rain
12:53 PM 37.0 °F 29.8 °F 33.1 °F 86% 30.19 in 6.0 mi SW 10.4 mph - 0.01 in   Overcast
1:29 PM 37.4 °F 30.3 °F 33.8 °F 87% 30.13 in 10.0 mi SSW 10.4 mph - 0.00 in   Overcast
1:53 PM 39.0 °F 31.4 °F 33.1 °F 79% 30.14 in 10.0 mi SSW 12.7 mph - 0.00 in   Overcast
2:53 PM 41.0 °F 32.8 °F 32.0 °F 70% 30.12 in 10.0 mi SSW 16.1 mph 23.0 mph N/A   Scattered Clouds
3:53 PM 39.9 °F 32.1 °F 32.0 °F 73% 30.13 in 10.0 mi SW 13.8 mph - N/A   Scattered Clouds
4:53 PM 39.9 °F 32.1 °F 30.9 °F 70% 30.14 in 10.0 mi SW 13.8 mph - N/A   Overcast
5:53 PM 39.9 °F 32.9 °F 30.9 °F 70% 30.15 in 10.0 mi SW 11.5 mph - N/A   Overcast
6:53 PM 39.0 °F 31.8 °F 30.0 °F 70% 30.15 in 10.0 mi SW 11.5 mph - N/A   Clear
7:53 PM 37.9 °F 30.5 °F 30.9 °F 76% 30.14 in 10.0 mi SW 11.5 mph - N/A   Partly Cloudy
8:53 PM 37.9 °F 29.2 °F 30.0 °F 73% 30.14 in 10.0 mi SW 15.0 mph - N/A   Clear
9:53 PM 37.0 °F 29.8 °F 30.0 °F 76% 30.15 in 10.0 mi WSW 10.4 mph - N/A   Clear
10:53 PM 35.1 °F 27.4 °F 28.9 °F 78% 30.16 in 10.0 mi West 10.4 mph - N/A   Clear
11:53 PM 34.0 °F 26.6 °F 28.0 °F 79% 30.17 in 10.0 mi West 9.2 mph - N/A   Clear